www.pogodaiklimat.ru

Погода и климат >> Архив погоды >> Китай >> Цзяньси >> Лушань


ПОГОДА в Лушане

  • Прогноз погоды в Лушане
  • Монитор погоды в Лушане

АРХИВ ПОГОДЫ в Лушане

Время (UTC), дата Ветер
(напр.,м/с)
 
Видим.   Явления Облачность Т
(С)
Тd
(С)
f
(%)
Тe
(С)
Тes
(С)
Комфортность P
(гПа)
Po
(гПа)
Тmin
(С)
Tmax
(С)
R
(мм)
R24
(мм)
S
(см)
12 11.02 штиль 0 15 км {дождь, туман} [диам. гололёда 35 мм] 10/10 100 м
[]
-1.0 -1.0 100 -2 -2 1031.9 891.5 0.5
18 11.02 В 1 29 км слаб. морось ?/? +0.6 +0.6 100 -2 -2 1030.5 891.7 +0.6
21 11.02 ЮЗ 2 23 км в посл. час морось н/о +3.5 +3.5 100 0 0 1028.1 890.3
00 12.02 Ю 3 500 м туман ?/? +4.5 +4.5 100 +1 +1 1027.7 890.4 2
03 12.02 Ю 5 400 м переохл. туман н/о +4.5 +4.5 100 -1 -1 1027.4 890.1
06 12.02 ЮЗ 3 300 м туман ?/? +3.2 +3.2 100 -1 -1 1026.4 888.7 -3.0 0.0
09 12.02 Ю 1 2600 м слаб. дождь {морось, туман} н/о +1.8 +1.8 100 -0 -0 1027.3 888.8
12 12.02 С 1 300 м туман {дождь} [диам. гололёда 27 мм] ?/? -2.0 -2.0 100 -4 -4 1030.1 889.4 0.8
18 12.02 С 1 200 м туман ?/? -2.0 -2.0 100 -4 -4 1031.1 892.8 +5.9 0.1
21 12.02 С 3 400 м туман н/о -2.5 -2.5 100 -8 -8 1030.4 889.4
00 13.02 В 1 700 м туман [диам. гололёда 27 мм] ?/? -1.2 -1.2 100 -4 -4 1031.0 890.6 0.1
03 13.02 В 1 200 м слаб. дождь {туман} н/о -0.3 -0.3 100 -3 -3 1030.7 890.8
06 13.02 Ю 1 400 м слаб. дождь {туман} ?/? +0.2 +0.2 100 -2 -2 1027.8 888.5 -3.0 6
09 13.02 ЮЗ 1 300 м слаб. дождь {туман} н/о +1.4 +1.4 100 -1 -1 1026.8 888.2
12 13.02 Ю 1 300 м слаб. дождь {туман} ?/? -0.3 -0.3 100 -3 -3 1028.4 888.8 8
18 13.02 СВ 1 200 м туман {снег, дождь} ?/? -1.2 -1.2 100 -4 -4 1029.0 888.9 +2.9 4
21 13.02 С 2 100 м туман ?/? -0.5 -0.5 100 -5 -5 1027.8 888.2
00 14.02 С 2 28 км в посл. час туман 9/9 100 м
[]
+0.9 +0.9 100 -3 -3 1028.8 889.7 4
03 14.02 С 1 7000 м н/о +3.1 +3.1 100 +1 +1 1028.4 890.4
06 14.02 Ю 3 20 км 10/10 100 м
[]
+2.9 +2.9 100 -1 -1 1026.5 888.6 -1.6
09 14.02 С 2 200 м туман {дождь} ?/? +0.2 +0.2 100 -4 -4 1026.5 887.4
12 14.02 С 1 100 м слаб. дождь {туман} ?/? -0.5 -0.5 100 -3 -3 1028.2 888.5 3
18 14.02 В 1 100 м туман ?/? +0.7 +0.7 100 -2 -2 1026.6 887.7 +4.9 4
21 14.02 С 2 400 м дождь н/о -0.6 -0.6 100 -5 -5 1025.6 886.2
00 15.02 С 4 200 м слаб. переохл. дождь (гололёд) [диам. гололёда 27 мм] ?/? -0.4 -0.4 100 -6 -6 1027.9 888.3 10
03 15.02 С 3 300 м слаб. дождь {туман} н/о -0.3 -0.3 100 -5 -5 1028.1 888.5
06 15.02 С 3 300 м слаб. переохл. дождь (гололёд) {туман} [диам. гололёда 28 мм] ?/? -0.8 -0.8 100 -6 -6 1026.0 886.5 -1.0 12
09 15.02 С 3 900 м слаб. переохл. дождь (гололёд) {туман} н/о -0.8 -0.8 100 -6 -6 1026.1 886.5
12 15.02 С 3 300 м слаб. переохл. дождь (гололёд) {туман} [диам. гололёда 29 мм] ?/? -1.9 -1.9 100 -7 -7 1027.7 889.1 3
18 15.02 В 3 300 м сильн. снег {туман} ?/? -1.6 -1.6 100 -7 -7 1028.0 887.8 +2.8 3
21 15.02 В 3 300 м сильн. снег н/о -2.5 -2.5 100 -8 -8 1026.9 886.4
00 16.02 В 3 600 м слаб. переохл. дождь (гололёд) [диам. гололёда 39 мм] ?/? -2.5 -2.5 100 -8 -8 1028.1 887.5 2
03 16.02 СВ 2 400 м слаб. дождь со снегом {туман} н/о -3.1 -3.1 100 -7 -7 1029.2 888.1
06 16.02 СВ 2 400 м слаб. дождь со снегом {туман} [диам. гололёда 40 мм] ?/? -3.3 -3.3 100 -8 -8 1027.5 886.6 -3.6 0.5
09 16.02 СВ 2 500 м слаб. дождь со снегом {туман} н/о -3.7 -3.7 100 -8 -8 1027.8 886.6
12 16.02 СВ 2 1200 м в посл. час дождь со снегом {туман} [диам. гололёда 42 мм] ?/? -3.4 -3.4 100 -8 -8 1027.7 888.2 0.0
18 16.02 СВ 1 400 м туман {снег} ?/? -4.1 -4.1 100 -7 -7 1029.4 887.8 -1.1 0.1
21 16.02 штиль 0 1000 м в посл. час снег н/о -4.4 -4.4 100 -6 -6 1027.9 886.4
00 17.02 штиль 0 1100 м слаб. снег [диам. гололёда 48 мм] ?/? -4.3 -4.3 100 -6 -6 1029.2 887.5 0.1
03 17.02 СВ 1 1000 м в посл. час снег н/о -3.5 -3.5 100 -6 -6 1029.6 888.3
06 17.02 штиль 0 2600 м слаб. переохл. дождь (гололёд) [диам. гололёда 48 мм] ?/? -2.4 -2.4 100 -4 -4 1026.9 886.5 -5.0 1
09 17.02 штиль 0 700 м слаб. переохл. дождь (гололёд) н/о -1.3 -1.3 100 -3 -3 1026.1 886.3
12 17.02 штиль 0 1100 м слаб. переохл. дождь (гололёд) {туман} [диам. гололёда 51 мм] 10/10
[]
-1.0 -1.0 100 -2 -2 1026.2 886.5 5
18 17.02 В 1 1100 м слаб. дождь ?/? -0.2 -0.2 100 -3 -3 1022.4 883.6 +0.7 2
21 17.02 штиль 0 1300 м слаб. дождь н/о 0.0 0.0 100 -1 -1 1020.6 882.2
00 18.02 Ю 1 2400 м дождь [диам. гололёда 50 мм] ?/? +2.7 +2.7 100 +1 +1 1020.1 883.0 8
03 18.02 штиль 0 200 м слаб. дождь {туман} н/о +0.5 +0.5 100 -1 -1 1021.2 882.9
06 18.02 З 1 1800 м слаб. дождь {туман} ?/? +1.0 +1.0 100 -1 -1 1019.3 881.5 -3.2 26
09 18.02 Ю 2 200 м туман {дождь} 10/10
[]
-0.4 -0.4 100 -4 -4 1019.1 880.7

 

Местоположение метеостанции Лушань (Цзяньси, Китай): широта 29.58 долгота 115.98 высота над уровнем моря 1165 м.

В архиве по умолчанию представлена погода в Лушане за последнюю неделю. Архивные данные за месяц целиком и за предыдущие месяцы, начиная с января 2011 года, Вы можете получить, выбрав интересующий диапазон дат из раскрывающегося списка и нажав кнопку "Ввод!".


*Определитесь, кто Вы:
робот инопланетянин человек

Внимание! Время в таблицах - всемирное. Для получения местного времени необходимо прибавить поправку, которая равна 8 ч.

Смотрите также архив погоды в соседних городах и на ближайших метеорологических станциях:

Погода в Наньчане (Цзяньси, Китай) (109 км)
Погода в Цзиндэчжэне (Цзяньси, Китай) (122 км)
Погода в Аньцине (Аньхой, Китай) (148 км)
Погода в Сьюши (Цзяньси, Китай) (149 км)
Погода в Мачэне (Хубэй, Китай) (203 км)
Погода в Хушане (Аньхой, Китай) (205 км)
Погода в Ухани (Хубэй, Китай) (212 км)
Погода на Хуаншане (Аньхой, Китай) (218 км)
Погода в Наньчене (Цзяньси, Китай) (232 км)
Погода в Ичуне (Хэйлунцзян, Китай) (252 км)

Пояснения к столбцам:

Ветер - указаны скорость ветра в м/с - средняя за 10 мин, порывы в срок и между сроками (в фигурных скобках) и направление, откуда дует ветер: С - северный, СВ - северо-восточный, В - восточный, ЮВ - юго-восточный, Ю - южный, ЮЗ - юго-западный, З - западный, СЗ - северо-западный.
Видимость - горизонтальная дальность видимости в метрах или километрах. При видимости от 1 до 10 км при отсутствии осадков обычно наблюдается дымка, при ухудшении видимости до 1 км и менее - туман. В сухую погоду видимость может ухудшаться дымом, пылью или мглою.
Явления - указаны атмосферные явления, наблюдавшиеся в срок или в последний час перед сроком; фигурными скобками обозначены явления, наблюдавшиеся между сроками (за 1-3 часа до срока); квадратными скобками обозначены град или гололедные отложения с указанием их диаметра в мм.
Облачность - указаны через наклонную черту общая и нижняя облачность в баллах и высота нижней границы облаков в метрах; квадратными скобками обозначены формы облаков: Ci - перистые, Cs - перисто-слоистые, Cc - перисто-кучевые, Ac - высококучевые, As - высокослоистые, Sc - слоисто-кучевые, Ns - слоисто-дождевые, Cu - кучевые, Cb - кучево-дождевые. Подробнее классификацию облаков см. в Атласе облаков (PDF).
T - Температура воздуха - температура, измеренная на высоте 2 м над землей.
Td - Температура точки росы - температура, при понижении до которой содержащийся в воздухе водяной пар достигнет насыщения.
f - Относительная влажность воздуха - влажноcть воздуха, измеренная на высоте 2 м над землей.
Te - Эффективная температура - температура, которую ощущает одетый по сезону человек в тени. Характеристика душности погоды. При расчете учитывается влияние влажности воздуха и скорости ветра на теплоощущения человека.
Tes - Эффективная температура на солнце - температура, которую ощущает человек, с поправкой на солнечный нагрев. Характеристика знойности погоды. Зависит от высоты солнца над горизонтом, облачности и скорости ветра. Ночью, в пасмурную погоду, а также при ветре 12 м/с и более поправка равна нулю.
P - Атмосферное давление - приведенное к уровню моря атмосферное давление.
Po - Атмосферное давление - измеренное на уровне метеостанции атмосферное давление.
Tmin - Минимальная температура - минимум температуры воздуха на высоте 2 м над землей.
Tmax - Максимальная температура - максимум температуры воздуха на высоте 2 м над землей.
R - Количество осадков - Количество выпавших осадков за период времени, мм. При наведении курсора мыши на число - период времени, за который выпало указанное количество осадков.
R24 - Количество осадков - Количество выпавших осадков за 24 часа, мм.
S - Снежный покров - Высота снежного покрова, см. При наведении курсора мыши на число - состояние снежного покрова и степень покрытия местности в баллах.